Date,TemperatureHighF,TemperatureAvgF,TemperatureLowF,DewpointHighF,DewpointAvgF,DewpointLowF,HumidityHigh,HumidityAvg,HumidityLow,PressureMaxIn,PressureMinIn,WindSpeedMaxMPH,WindSpeedAvgMPH,GustSpeedMaxMPH,PrecipitationSumIn
2013-12-1,57,36,30,38,29,23,97,78,43,30.37,30.03,6,0,7,0.00
2013-12-2,56,40,34,41,34,31,91,82,55,30.03,29.80,6,0,6,0.00
2013-12-3,55,48,41,48,44,39,97,86,71,29.92,29.84,8,1,8,0.01
2013-12-4,64,55,47,54,50,45,97,84,66,30.02,29.91,13,1,13,0.00
2013-12-5,69,58,53,61,55,51,98,90,69,30.05,29.93,6,1,8,0.21
2013-12-6,69,62,51,62,60,49,98,94,75,30.01,29.86,14,1,14,0.42
2013-12-7,51,41,37,50,40,36,98,95,91,30.33,29.95,8,0,8,0.00
2013-12-8,46,42,37,45,40,36,99,94,85,30.31,30.15,10,1,10,0.14
2013-12-9,52,48,41,52,48,40,99,97,91,30.18,30.00,11,0,11,0.13
2013-12-10,49,37,25,47,35,22,99,92,77,30.35,29.90,13,1,13,0.28
2013-12-11,50,28,21,30,20,11,90,75,25,30.49,30.33,10,0,10,0.00
2013-12-12,36,28,23,22,16,7,84,63,31,30.46,30.36,12,1,12,0.00
2013-12-13,50,32,20,26,17,10,84,58,26,30.44,30.26,5,0,6,0.00
2013-12-14,47,42,39,45,36,18,99,78,39,30.28,29.76,14,1,14,0.43
2013-12-15,42,33,28,42,31,26,99,92,87,30.16,29.75,17,1,17,0.03
2013-12-16,52,33,27,34,28,25,95,83,42,30.25,30.14,6,0,6,0.01
2013-12-17,57,40,34,36,31,22,81,72,42,30.17,29.94,19,1,19,0.00
2013-12-18,46,34,25,23,15,4,80,50,21,30.33,30.10,13,1,13,0.00
2013-12-19,63,45,33,31,24,13,70,46,25,30.35,30.19,6,0,7,0.00
2013-12-20,64,51,41,46,29,20,83,42,31,30.20,30.07,6,1,8,0.00
2013-12-21,62,57,50,60,54,45,96,89,81,30.11,29.92,17,2,17,0.07
2013-12-22,63,57,54,60,56,52,99,96,86,30.02,29.89,19,1,19,2.38
2013-12-23,56,48,32,55,47,30,99,95,84,30.22,29.95,13,1,15,0.23
2013-12-24,32,26,18,30,22,15,92,83,70,30.46,30.21,12,1,12,0.00
2013-12-25,41,26,17,21,17,10,91,71,33,30.54,30.38,6,0,7,0.00
2013-12-26,46,33,24,25,22,18,86,67,39,30.42,30.31,10,0,11,0.00
2013-12-27,50,36,26,29,23,19,86,61,32,30.50,30.37,7,0,9,0.00
2013-12-28,50,38,30,42,29,19,98,71,31,30.44,30.07,5,0,6,0.26
2013-12-29,48,42,38,45,40,34,99,92,79,30.07,29.82,10,1,12,0.20
2013-12-30,42,37,32,38,34,29,95,89,82,30.18,30.00,10,0,10,0.00
2013-12-31,37,31,27,30,22,19,91,71,50,30.41,30.15,11,0,13,0.00